Home   Weather   Joensuu   Past weeks

Flag for Finland Past Weather in Joensuu, Finland — Yesterday and Last 2 Weeks

Now
30 °F

Low clouds.


Feels Like: 25 °F
Forecast: 19 / 31 °F
Wind: 5 mph from Southwest

Location: Joensuu Airport

Current Time: Dec 8, 2016 at 4:20:56 am

Latest Report: Dec 8, 2016 at 3:50 am


Visibility: N/A

Pressure: 29.47 "Hg

Humidity: 100%

Dew Point: 30 °F

Location of JoensuuLocation

Past Weather in Joensuu — Graph

°F

Joensuu Temperature Yesterday

Maximum temperature yesterday: 32 °F (at 12:50 pm)
Minimum temperature yesterday: -4 °F (at 12:20 am)
Average temperature yesterday: 24 °F

High & Low Weather Summary for the Past Weeks

 TemperatureHumidityPressure
High37 °F (Nov 23, 9:20 pm)100% (Nov 23, 3:20 am)30.18 "Hg (Nov 23, 3:20 am)
Low-4 °F (Dec 7, 12:20 am)74% (Nov 28, 1:20 am)28.91 "Hg (Dec 5, 7:20 am)
Average22 °F92%29.62 "Hg
* Reported Nov 23 3:20 am — Dec 8 3:20 am, Joensuu, Weather by CustomWeather, © 2016

Note: Actual official high and low records may vary slightly from our data, if they occured in-between our weather recording intervals... More about our weather records

Advertising

Joensuu Weather History for the Previous 24 Hours

Scroll right to see more
 ConditionsComfort  
Time TempWeatherWind HumidityBarometerVisibility
3:20 am
Thu, Dec 8
30 °FLow clouds.5 mph100%29.47 "HgN/A
2:50 am30 °FLow clouds.6 mph100%29.47 "HgN/A
2:20 am32 °FLow clouds.7 mph93%29.50 "HgN/A
1:50 am32 °FLow clouds.6 mph93%29.50 "HgN/A
1:20 am32 °FLow clouds.8 mph93%29.50 "HgN/A
12:50 am32 °FLow clouds.7 mph93%29.50 "HgN/A
12:20 am32 °FLow clouds.7 mph93%29.53 "Hg6 mi
11:50 pm
Wed, Dec 7
32 °FLow clouds.9 mph93%29.53 "Hg4 mi
11:20 pm32 °FLow clouds.9 mph93%29.53 "HgN/A
10:50 pm32 °FLow clouds.8 mph93%29.56 "HgN/A
10:20 pm32 °FLow clouds.9 mph93%29.56 "HgN/A
9:50 pm32 °FLow clouds.9 mph93%29.56 "HgN/A
9:20 pm32 °FLow clouds.10 mph93%29.56 "HgN/A
8:50 pm32 °FLow clouds.9 mph93%29.56 "HgN/A
8:20 pm32 °FLow clouds.8 mph93%29.56 "HgN/A
7:50 pm32 °FLow clouds.8 mph93%29.56 "HgN/A
7:20 pm32 °FLow clouds.6 mph93%29.59 "HgN/A
6:50 pm32 °FLow clouds.8 mph93%29.59 "HgN/A
6:20 pm32 °FLow clouds.9 mph93%29.59 "HgN/A
5:50 pm32 °FLight rain. Low clouds.9 mph93%29.59 "HgN/A
5:20 pm32 °FSnow flurries. Ice fog.9 mph93%29.59 "Hg2 mi
4:50 pm32 °FLight rain. Low clouds.8 mph93%29.59 "Hg2 mi
4:20 pm32 °FSnow flurries. Ice fog.8 mph100%29.59 "Hg2 mi
3:50 pm32 °FLight rain. Ice fog.9 mph100%29.59 "Hg2 mi
3:20 pm32 °FLow clouds.9 mph100%29.62 "Hg4 mi
2:50 pm32 °FLow clouds.9 mph100%29.62 "Hg4 mi
2:20 pm32 °FLow clouds.9 mph100%29.62 "Hg6 mi
1:50 pm32 °FLow clouds.10 mph93%29.62 "Hg4 mi
1:20 pm32 °FSnow flurries. Low clouds.10 mph93%29.62 "Hg4 mi
12:50 pm32 °FSnow flurries. Low clouds.10 mph93%29.62 "Hg4 mi
12:20 pm30 °FLight snow. Low clouds.9 mph100%29.62 "Hg2 mi
11:50 am30 °FLight snow. Low clouds.9 mph93%29.62 "Hg3 mi
11:20 am30 °FLight snow. Low clouds.9 mph93%29.62 "Hg4 mi
10:50 am30 °FLight snow. Low clouds.12 mph93%29.65 "Hg4 mi
10:20 am28 °FLight snow. Low clouds.10 mph93%29.65 "Hg2 mi
9:50 am28 °FLight snow. Low clouds.12 mph93%29.65 "Hg2 mi
9:20 am27 °FLight snow. Overcast.10 mph93%29.68 "Hg2 mi
8:50 am27 °FSnow. Overcast.9 mph93%29.68 "Hg1 mi
8:20 am25 °FSnow. Overcast.7 mph93%29.71 "Hg1 mi
7:50 am23 °FSnow. Passing clouds.9 mph93%29.71 "Hg1 mi
7:20 am21 °FSnow. Overcast.10 mph93%29.74 "Hg1 mi
6:50 am21 °FSnow. Overcast.10 mph93%29.74 "Hg1 mi
6:20 am21 °FSnow. Overcast.10 mph86%29.77 "Hg1 mi
5:50 am18 °FSnow. Overcast.9 mph93%29.80 "Hg1 mi
5:20 am16 °FSnow. Overcast.10 mph93%29.83 "Hg1 mi
4:50 am14 °FSnow. Overcast.10 mph92%29.86 "Hg1 mi
4:20 am12 °FLight snow. Low clouds.10 mph85%29.92 "Hg2 mi
Weather by CustomWeather, © 2016

See weather overviewHow to use our weather pages